Date,TemperatureHighF,TemperatureAvgF,TemperatureLowF,DewpointHighF,DewpointAvgF,DewpointLowF,HumidityHigh,HumidityAvg,HumidityLow,PressureMaxIn,PressureMinIn,WindSpeedMaxMPH,WindSpeedAvgMPH,GustSpeedMaxMPH,PrecipitationSumIn
2012-1-1,65,48,33,53,40,31,97,77,47,30.12,29.82,19,3,24,0.05
2012-1-2,48,39,29,31,21,16,59,49,35,30.03,29.90,10,4,22,0.00
2012-1-3,33,27,21,14,11,6,70,51,35,30.32,30.02,12,4,27,0.00
2012-1-4,41,27,18,18,14,12,86,61,33,30.37,30.05,7,2,14,0.00
2012-1-5,52,40,30,29,24,16,78,55,38,30.09,30.02,10,3,17,0.00
2012-1-6,64,46,31,34,30,26,89,60,29,30.07,29.92,8,3,16,0.00
2012-1-7,68,53,38,47,40,31,78,61,45,30.03,29.90,10,3,18,0.00
2012-1-8,57,52,47,45,39,34,85,63,43,30.23,30.03,6,2,10,0.02
2012-1-9,47,43,41,43,42,40,96,94,85,30.24,30.05,8,2,11,0.19
2012-1-10,57,46,40,42,39,32,97,81,39,30.10,29.99,6,1,12,0.01
2012-1-11,53,48,41,52,46,38,99,93,79,29.99,29.49,10,3,19,0.33
2012-1-12,57,48,41,50,45,40,98,89,75,29.62,29.46,12,4,21,0.00
2012-1-13,51,37,29,47,23,19,85,58,45,30.04,29.47,28,6,31,0.01
2012-1-14,43,34,26,26,21,17,80,61,37,30.19,30.04,10,2,16,0.00
2012-1-15,42,33,26,29,24,20,92,71,46,30.54,30.10,8,2,13,0.00
2012-1-16,46,35,24,34,26,20,90,71,48,30.59,30.31,10,3,16,0.00
2012-1-17,62,51,40,54,45,34,94,81,68,30.30,29.81,17,5,27,0.05
2012-1-18,55,44,34,54,31,20,95,63,41,30.11,29.82,12,4,20,0.00
2012-1-19,46,36,25,32,24,17,78,63,46,30.21,30.03,9,2,16,0.00
2012-1-20,56,43,29,44,35,26,95,76,46,30.15,30.05,11,2,12,0.13
2012-1-21,52,47,35,51,46,32,98,96,88,30.17,29.83,9,2,18,0.17
2012-1-22,35,34,32,34,32,29,97,93,89,30.36,30.18,13,3,21,0.01
2012-1-23,49,40,34,49,40,34,99,98,97,30.30,30.00,7,2,15,0.04
2012-1-24,60,48,40,50,46,39,100,92,66,30.20,30.01,8,2,14,0.00
2012-1-25,60,44,31,40,36,30,98,76,41,30.32,30.18,8,1,9,0.00
2012-1-26,68,53,37,59,49,35,98,86,66,30.17,29.73,10,3,22,0.00
2012-1-27,66,58,41,60,50,34,97,77,49,29.99,29.55,20,5,26,0.27
2012-1-28,59,45,30,40,34,22,95,68,43,30.21,29.98,12,3,18,0.00
2012-1-29,50,40,28,23,18,12,79,44,23,30.34,30.21,12,3,14,0.00
2012-1-30,57,42,29,28,23,18,76,50,28,30.41,30.23,7,2,15,0.00
2012-1-31,66,50,37,35,30,26,71,50,26,30.35,30.20,10,4,15,0.00
2012-2-1,67,56,47,53,44,33,94,65,49,30.23,30.03,9,3,17,0.11
2012-2-2,66,55,44,54,44,30,97,70,37,30.29,29.95,14,3,19,0.02
2012-2-3,56,43,32,34,32,29,90,66,37,30.47,30.29,8,2,11,0.00
2012-2-4,53,45,34,47,41,30,96,85,62,30.35,30.03,8,2,12,0.08
2012-2-5,47,40,31,46,39,29,100,95,91,30.23,29.98,11,2,13,0.19
2012-2-6,48,38,30,36,33,29,97,84,54,30.29,30.12,6,1,9,0.00
2012-2-7,55,41,32,34,32,30,93,74,41,30.18,30.10,6,2,14,0.00
2012-2-8,47,36,28,40,32,27,95,87,70,30.19,30.10,5,1,11,0.00
2012-2-9,42,35,30,30,28,27,88,77,57,30.28,30.16,12,2,14,0.00
2012-2-10,49,40,27,38,34,25,94,79,63,30.20,29.87,7,1,13,0.00
2012-2-11,46,37,23,38,25,4,94,64,37,30.02,29.71,18,5,29,0.00
2012-2-12,40,29,20,16,10,3,56,45,32,30.23,30.03,14,5,25,0.00
2012-2-13,50,35,21,27,18,13,82,55,23,30.28,30.10,7,2,12,0.00
2012-2-14,55,46,36,41,33,24,77,62,47,30.11,29.97,10,3,18,0.00
2012-2-15,61,46,34,40,35,29,94,68,31,30.26,30.05,7,2,11,0.00
2012-2-16,58,48,40,51,43,33,96,84,51,30.25,29.98,7,1,15,0.31
2012-2-17,61,49,42,48,41,35,100,78,39,30.09,30.01,7,2,13,0.00
2012-2-18,63,50,37,43,36,25,86,60,29,30.10,29.93,8,1,14,0.00
2012-2-19,52,40,32,44,36,31,96,85,62,29.95,29.73,13,3,19,0.35
2012-2-20,47,35,28,35,30,27,97,86,53,30.34,29.91,9,2,15,0.46
2012-2-21,57,39,24,43,34,23,95,84,57,30.33,29.97,10,2,21,0.00
2012-2-22,68,52,36,48,43,35,97,74,34,29.97,29.54,16,4,22,0.00
2012-2-23,70,55,41,58,50,40,98,85,58,29.67,29.54,8,2,24,0.27
2012-2-24,78,64,45,63,54,27,92,73,45,29.80,29.39,15,6,28,0.31
2012-2-25,51,42,33,27,22,17,62,46,29,30.31,29.81,20,7,32,0.00
2012-2-26,52,37,24,24,21,17,83,55,27,30.49,30.32,7,2,13,0.01
2012-2-27,49,43,31,47,39,24,97,87,66,30.46,30.30,6,1,12,0.19
2012-2-28,64,51,38,47,38,30,97,69,28,30.40,30.26,6,1,11,0.01
2012-2-29,66,55,45,61,51,38,97,85,66,30.26,29.77,15,4,24,0.16
2012-3-1,76,63,46,61,50,35,96,69,26,29.85,29.68,19,5,26,0.00
2012-3-2,54,49,42,52,45,34,97,85,66,29.98,29.66,13,3,16,0.00
2012-3-3,58,54,47,56,50,43,98,89,62,29.73,29.54,10,2,22,0.73
2012-3-4,52,45,34,44,29,18,89,56,34,29.98,29.63,16,3,20,0.00
2012-3-5,51,40,28,33,24,18,89,57,35,30.48,29.88,20,5,30,0.00
2012-3-6,53,37,24,28,23,20,87,60,28,30.67,30.48,7,2,11,0.00
2012-3-7,68,50,32,48,40,28,90,70,44,30.62,30.41,12,3,20,0.00
2012-3-8,71,59,46,55,50,45,97,77,47,30.42,30.08,15,4,22,0.00
2012-3-9,59,53,42,56,41,27,96,67,37,30.29,30.02,10,3,17,0.20
2012-3-10,56,45,36,30,25,18,67,48,24,30.51,30.29,8,2,14,0.00
2012-3-11,63,46,29,34,28,24,88,54,25,30.57,30.42,8,2,13,0.00
2012-3-12,70,54,38,52,43,30,88,69,52,30.43,30.20,11,3,20,0.00
2012-3-13,78,64,55,60,55,49,91,74,44,30.21,30.05,16,3,17,0.01
2012-3-14,82,67,53,58,52,44,97,65,28,30.19,30.09,8,2,13,0.00
2012-3-15,82,67,52,55,52,49,89,61,35,30.23,30.13,11,2,17,0.00
2012-3-16,77,63,51,60,55,49,96,76,43,30.18,30.06,7,1,16,0.08
2012-3-17,78,66,53,62,58,53,98,78,51,30.23,30.12,8,2,10,0.24
2012-3-18,67,60,56,61,58,55,98,93,81,30.29,30.17,5,1,8,0.08
2012-3-19,77,62,50,63,56,49,98,83,54,30.24,30.08,5,1,9,0.00
2012-3-20,82,68,58,63,60,57,97,77,47,30.23,30.06,8,2,16,0.39
2012-3-21,75,64,56,63,59,55,98,85,64,30.27,30.15,6,1,10,0.00
2012-3-22,79,66,54,64,59,53,98,81,54,30.24,30.09,9,1,14,0.00
2012-3-23,83,69,56,64,60,54,97,75,46,30.10,29.91,11,2,23,0.24
2012-3-24,71,63,54,66,61,53,98,94,80,29.95,29.71,7,2,26,1.27
2012-3-25,62,57,54,58,55,53,98,93,84,29.77,29.67,9,1,12,0.06
2012-3-26,74,62,54,56,49,30,96,66,34,30.08,29.77,9,2,14,0.03
2012-3-27,60,48,40,38,27,19,79,46,24,30.33,30.09,7,2,14,0.00
2012-3-28,77,58,44,60,49,33,83,70,53,30.22,29.81,13,4,28,0.00
2012-3-29,81,67,54,57,46,34,82,54,20,29.89,29.77,6,2,16,0.00
2012-3-30,73,60,48,59,50,43,89,70,49,30.02,29.81,10,2,13,0.00
2012-3-31,74,65,60,63,60,57,97,84,61,29.82,29.65,6,1,12,0.18
2012-4-1,68,59,49,57,51,46,94,76,54,29.88,29.67,7,2,14,0.00
2012-4-2,72,64,52,61,51,39,84,65,33,29.91,29.60,12,2,16,0.00
2012-4-3,76,60,42,60,47,38,90,66,36,30.00,29.76,10,2,20,0.00
2012-4-4,85,68,60,65,60,55,95,78,43,29.79,29.59,7,2,13,0.20
2012-4-5,62,58,49,61,48,38,97,73,51,29.82,29.61,10,2,17,0.04
2012-4-6,61,49,42,44,39,31,95,71,34,30.07,29.79,13,2,21,0.07
2012-4-7,65,49,36,39,32,21,86,58,22,30.26,30.07,5,1,10,0.00
2012-4-8,73,58,37,45,37,24,89,49,24,30.13,29.88,8,1,18,0.00
2012-4-9,71,60,48,39,34,29,60,40,23,30.02,29.78,16,2,20,0.00
2012-4-10,72,60,44,41,36,23,82,44,26,29.91,29.71,12,2,31,0.00
2012-4-11,56,48,39,29,26,24,67,43,29,30.12,29.78,8,2,18,0.00
2012-4-12,60,46,34,36,29,26,77,55,29,30.21,30.10,5,1,13,0.00
2012-4-13,64,50,38,43,37,33,91,64,31,30.25,30.14,5,1,8,0.00
2012-4-14,74,58,42,47,43,38,91,61,32,30.30,30.13,12,2,17,0.00
2012-4-15,78,65,55,62,57,47,96,78,55,30.19,30.08,11,3,20,0.00
2012-4-16,82,69,59,62,59,55,91,72,46,30.14,30.02,19,3,22,0.00
2012-4-17,81,70,57,62,58,53,90,67,42,30.15,30.03,7,2,16,0.32
2012-4-18,61,56,53,54,51,49,93,84,73,30.15,30.04,8,2,15,0.10
2012-4-19,60,55,50,55,52,49,96,90,79,30.08,30.01,6,1,13,0.00
2012-4-20,70,60,51,60,55,50,97,85,65,30.01,29.83,6,0,9,0.00
2012-4-21,78,63,52,63,58,50,98,84,58,29.84,29.65,10,1,16,0.57
2012-4-22,60,53,47,58,52,46,97,95,93,29.70,29.45,11,2,20,0.52
2012-4-23,48,44,41,46,42,38,97,90,73,29.66,29.45,4,1,14,0.06
2012-4-24,61,49,38,41,34,29,89,62,31,29.77,29.64,12,2,18,0.00
2012-4-25,65,54,42,53,47,38,93,79,55,29.95,29.79,9,1,17,0.02
2012-4-26,70,61,53,65,58,52,98,91,76,29.87,29.71,10,2,25,0.48
2012-4-27,72,64,55,62,55,47,96,76,46,30.07,29.78,7,1,14,0.00
2012-4-28,57,54,51,49,47,44,90,77,66,30.19,30.05,8,1,12,0.00
2012-4-29,74,62,52,63,56,49,94,83,64,30.19,30.08,7,1,9,0.00
2012-4-30,75,66,60,67,62,58,97,87,71,30.21,30.06,7,1,12,0.00
2012-5-1,84,72,64,72,66,63,96,84,63,30.10,29.97,12,2,19,0.00
2012-5-2,87,74,64,72,67,62,96,81,54,30.08,29.99,6,1,13,0.00
2012-5-3,87,74,64,71,67,62,94,79,54,30.09,29.99,5,1,14,0.00
2012-5-4,85,73,61,70,65,59,97,78,50,30.01,29.86,5,1,10,0.00
2012-5-5,81,70,64,71,66,61,97,87,70,29.86,29.75,9,0,11,1.60
2012-5-6,71,66,61,66,64,59,97,92,79,30.00,29.86,6,2,15,0.00
2012-5-7,74,66,58,64,60,57,97,83,63,30.04,29.94,6,1,9,0.00
2012-5-8,76,66,61,66,62,58,92,86,72,29.98,29.81,8,2,13,0.00
2012-5-9,72,65,57,68,62,56,97,91,80,29.84,29.65,5,1,28,0.47
2012-5-10,67,58,50,56,51,47,96,79,51,29.95,29.68,8,1,11,0.00
2012-5-11,69,56,44,50,45,38,94,69,33,30.21,29.95,6,1,9,0.00
2012-5-12,73,60,45,58,50,43,94,74,39,30.32,30.20,9,1,10,0.00
2012-5-13,71,63,54,63,59,52,97,87,70,30.23,30.10,7,1,13,0.15
2012-5-14,67,64,60,66,63,60,98,95,89,30.10,29.91,11,2,13,0.82
2012-5-15,75,68,61,69,65,60,98,91,73,29.97,29.88,6,0,15,0.05
2012-5-16,76,69,64,70,66,63,98,90,69,29.93,29.84,4,0,7,0.13
2012-5-17,77,68,60,69,64,59,98,87,67,30.02,29.88,8,2,15,0.00
2012-5-18,72,65,59,62,55,50,93,72,48,30.08,30.00,10,2,13,0.00
2012-5-19,75,63,52,56,52,47,93,69,42,30.13,30.03,10,1,17,0.00
2012-5-20,78,66,52,61,56,50,93,73,41,30.10,30.01,12,2,17,0.00
2012-5-21,77,69,64,67,63,61,93,82,65,30.01,29.82,3,0,11,0.00
2012-5-22,78,68,62,70,65,61,98,88,70,29.86,29.75,3,0,8,0.28
2012-5-23,75,66,61,69,64,60,98,91,69,29.92,29.76,5,0,16,1.33
2012-5-24,78,68,59,73,65,58,98,91,76,30.02,29.91,5,0,12,0.00
2012-5-25,85,72,61,74,67,60,98,85,60,30.10,30.02,3,0,7,0.00
2012-5-26,84,72,65,69,66,64,98,84,55,30.12,30.04,5,1,12,0.00
2012-5-27,81,72,63,71,67,62,98,87,66,30.12,30.02,4,1,8,0.00
2012-5-28,84,75,68,73,69,67,96,85,64,30.05,29.94,5,1,11,0.00
2012-5-29,84,73,68,73,70,67,97,89,63,29.98,29.80,6,1,12,0.04
2012-5-30,79,71,64,70,66,62,98,85,58,29.81,29.69,7,1,16,0.13
2012-5-31,85,72,63,69,65,61,96,79,50,29.88,29.76,3,0,11,0.60
2012-6-1,82,69,63,74,67,62,98,93,70,29.85,29.64,8,2,17,0.68
2012-6-2,70,61,53,62,55,52,98,82,57,29.88,29.75,4,0,9,0.01
2012-6-3,77,64,51,61,55,50,95,77,50,29.92,29.77,8,1,14,0.00
2012-6-4,79,69,61,64,60,56,90,75,49,29.78,29.62,4,0,10,0.00
2012-6-5,72,64,58,59,57,54,95,78,53,29.91,29.70,8,1,12,0.05
2012-6-6,68,60,55,60,56,53,96,86,67,29.99,29.88,5,1,9,0.28
2012-6-7,76,63,53,64,57,52,98,82,57,30.03,29.96,2,0,5,0.00
2012-6-8,80,66,55,62,57,51,97,74,38,30.04,29.94,4,0,8,0.00
2012-6-9,84,70,57,66,60,55,94,74,45,30.05,29.96,6,1,12,0.00
2012-6-10,85,72,62,67,64,60,94,76,48,30.12,30.03,6,1,11,0.00
2012-6-11,80,71,66,75,68,64,97,91,77,30.12,29.99,9,1,15,0.49
2012-6-12,79,72,69,75,71,68,98,94,84,29.99,29.81,8,2,12,0.06
2012-6-13,82,73,65,71,66,58,97,79,58,29.99,29.84,10,2,18,0.00
2012-6-14,76,67,55,66,60,52,93,80,68,30.14,29.99,9,2,15,0.00
2012-6-15,78,67,59,64,60,56,97,78,55,30.21,30.12,10,2,13,0.00
2012-6-16,78,66,53,61,56,51,95,74,47,30.26,30.12,11,1,14,0.00
2012-6-17,77,65,54,63,58,52,96,79,56,30.17,29.99,4,0,8,0.00
2012-6-18,82,71,61,70,65,58,94,82,63,30.06,29.99,9,1,13,0.00
2012-6-19,87,75,65,74,68,63,96,82,57,30.12,30.05,4,0,10,0.00
2012-6-20,91,78,66,75,70,65,96,79,50,30.12,30.01,4,0,7,0.00
2012-6-21,91,78,69,77,72,67,94,81,53,30.02,29.84,4,0,15,0.00
2012-6-22,92,76,69,75,71,68,97,83,51,29.87,29.76,5,1,17,0.24
2012-6-23,83,75,67,74,70,66,98,86,61,29.97,29.82,4,0,8,0.00
2012-6-24,87,76,66,73,68,63,98,78,45,29.98,29.86,6,1,11,0.00
2012-6-25,88,78,68,74,69,62,97,77,47,29.88,29.64,5,1,10,0.00
2012-6-26,78,70,59,65,52,45,86,56,36,29.88,29.74,10,2,15,0.00
2012-6-27,83,69,54,60,55,50,92,65,33,29.96,29.85,7,1,11,0.00
2012-6-28,92,75,58,66,60,56,91,65,33,29.98,29.82,7,1,13,0.00
2012-6-29,99,83,69,77,70,63,84,66,45,29.86,29.70,10,1,33,0.00
2012-6-30,98,82,66,76,69,62,91,68,43,29.87,29.77,4,1,35,0.06
2012-7-1,96,79,69,79,70,64,94,76,44,29.93,29.80,4,0,22,0.00
2012-7-2,90,79,68,73,67,64,88,70,42,29.97,29.89,8,1,20,0.00
2012-7-3,94,80,68,76,70,67,94,73,43,29.97,29.86,4,0,10,0.00
2012-7-4,94,77,71,77,71,68,96,83,47,29.93,29.84,5,0,19,0.55
2012-7-5,92,77,70,81,73,69,97,88,55,29.90,29.79,7,0,15,0.06
2012-7-6,93,77,69,79,72,67,97,84,52,29.92,29.84,5,0,12,0.62
2012-7-7,92,80,71,79,74,70,99,84,57,29.95,29.85,5,1,11,0.00
2012-7-8,97,82,76,79,74,70,89,79,55,29.90,29.76,5,1,13,0.04
2012-7-9,92,79,71,78,73,70,97,83,59,29.93,29.79,6,1,23,0.21
2012-7-10,82,75,71,74,72,70,98,92,71,30.00,29.89,3,0,9,0.37
2012-7-11,76,69,64,73,68,63,98,97,90,30.10,29.98,4,0,13,2.06
2012-7-12,78,70,64,72,68,64,98,91,70,30.14,30.08,5,0,8,0.00
2012-7-13,82,74,69,75,71,68,97,90,74,30.16,30.08,5,1,9,0.00
2012-7-14,82,76,72,79,74,70,98,94,82,30.18,30.07,6,0,15,0.98
2012-7-15,88,78,70,78,74,70,98,88,66,30.16,30.01,7,1,11,0.01
2012-7-16,89,77,72,77,73,71,98,88,65,30.04,29.87,5,1,12,0.09
2012-7-17,89,78,70,78,74,69,98,86,62,29.93,29.83,4,0,8,0.00
2012-7-18,92,81,72,79,75,71,97,83,61,29.94,29.83,6,1,11,0.00
2012-7-19,90,79,72,77,73,70,94,83,62,29.96,29.87,8,1,14,0.00
2012-7-20,87,76,71,77,73,70,98,89,70,29.91,29.83,7,1,13,0.27
2012-7-21,83,75,70,78,73,69,98,93,75,30.05,29.89,6,1,18,0.17
2012-7-22,80,74,70,76,73,70,98,94,86,30.15,30.03,3,0,5,0.22
2012-7-23,88,76,71,78,73,70,98,90,67,30.12,29.97,6,0,19,0.19
2012-7-24,90,77,72,80,73,69,98,87,71,29.97,29.79,8,1,18,0.01
2012-7-25,84,76,70,74,70,66,93,83,68,29.93,29.83,6,0,10,0.00
2012-7-26,92,81,72,79,75,70,97,82,58,29.87,29.72,6,1,13,0.00
2012-7-27,93,80,73,78,74,72,98,85,56,29.90,29.77,6,1,13,0.37
2012-7-28,86,76,69,79,73,69,98,90,63,29.95,29.84,3,0,12,0.08
2012-7-29,86,75,67,72,69,67,98,85,57,29.97,29.89,4,0,8,0.00
2012-7-30,86,75,68,75,70,68,97,87,60,29.99,29.91,6,1,14,0.07
2012-7-31,82,74,68,74,70,67,98,90,71,29.96,29.85,4,0,7,0.00
2012-8-1,85,76,70,75,71,69,97,86,68,29.89,29.77,4,0,6,0.00
2012-8-2,89,76,69,77,70,68,97,84,62,29.91,29.81,7,1,13,0.00
2012-8-3,88,76,67,77,71,65,97,83,63,30.04,29.89,8,1,10,0.00
2012-8-4,88,78,71,75,72,69,96,84,64,30.15,30.02,5,0,10,0.00
2012-8-5,87,78,71,77,73,70,97,87,65,30.18,30.06,6,1,14,0.02
2012-8-6,87,78,73,76,73,71,96,85,62,30.08,29.95,11,1,11,0.03
2012-8-7,80,75,72,76,73,70,97,92,82,30.01,29.91,6,1,10,0.09
2012-8-8,85,74,68,77,72,67,97,91,73,29.95,29.84,6,1,14,0.03
2012-8-9,84,74,65,75,70,64,98,89,74,29.96,29.82,6,1,9,0.00
2012-8-10,78,74,69,75,71,68,98,93,85,29.84,29.77,9,2,16,0.45
2012-8-11,78,74,72,75,72,70,97,95,84,29.91,29.80,6,1,11,0.53
2012-8-12,81,72,66,72,68,65,97,87,61,29.98,29.88,4,0,9,0.00
2012-8-14,86,74,64,72,68,62,97,82,55,29.92,29.81,8,1,12,0.00
2012-8-15,82,75,70,74,68,-100,96,82,70,29.90,0.00,3,-16,6,0.00
2012-8-16,83,73,66,70,67,64,95,82,55,29.99,29.89,5,0,8,0.00
2012-8-17,85,73,63,72,67,62,98,84,59,29.95,29.78,8,1,13,0.01
2012-8-18,80,73,66,71,68,65,96,85,63,29.89,29.79,6,0,9,0.00
2012-8-19,70,68,67,69,67,66,97,96,90,29.87,29.81,9,1,9,1.02
2012-8-20,74,69,66,71,67,65,98,93,81,29.95,29.82,4,0,7,0.08
2012-8-21,78,70,65,71,67,64,98,89,71,30.04,29.93,3,0,9,0.00
2012-8-22,79,71,66,71,68,64,98,91,73,30.10,30.02,6,1,10,0.00
2012-8-23,81,72,65,71,67,63,98,85,59,30.12,30.05,6,1,9,0.00
2012-8-24,76,70,64,69,65,63,98,87,64,30.12,30.06,5,0,8,0.00
2012-8-25,70,67,62,65,63,60,95,87,78,30.10,30.06,8,2,23,0.03
2012-8-26,77,70,64,71,66,61,94,88,76,30.16,30.07,4,0,6,0.01
2012-8-27,85,74,65,74,70,64,97,87,67,30.13,29.97,5,0,9,0.00
2012-8-28,86,77,71,77,72,69,97,87,67,29.99,29.85,6,1,12,0.26
2012-8-29,81,73,68,73,69,66,98,87,62,29.97,29.87,6,1,8,0.00
2012-8-30,84,73,64,73,68,63,98,86,57,30.11,29.97,5,1,12,0.00
2012-8-31,88,78,71,77,74,69,97,86,64,30.16,30.02,8,1,10,0.00
2012-9-1,88,79,73,77,74,71,96,83,58,30.08,29.99,8,1,10,0.00
2012-9-2,88,78,70,77,73,69,97,85,64,30.01,29.87,7,1,15,1.68
2012-9-3,83,73,70,77,71,69,98,94,79,30.01,29.92,5,1,16,0.53
2012-9-4,79,74,70,76,72,70,98,94,83,29.98,29.88,6,1,13,0.06
2012-9-5,82,76,72,75,73,70,98,91,79,29.90,29.80,9,1,17,0.01
2012-9-6,83,75,71,77,72,70,97,92,77,29.91,29.83,11,1,14,0.15
2012-9-7,81,73,69,73,70,68,98,90,70,29.95,29.82,4,1,7,0.01
2012-9-8,85,72,67,77,70,66,98,94,77,29.83,29.65,6,1,17,0.58
2012-9-9,74,65,59,68,59,55,97,82,53,29.96,29.79,5,1,14,0.01
2012-9-10,73,62,54,60,56,52,96,81,53,30.14,29.96,4,0,9,0.00
2012-9-11,74,61,53,60,56,51,98,83,50,30.29,30.14,4,0,7,0.00
2012-9-12,74,62,52,62,56,51,98,83,55,30.35,30.25,5,0,9,0.00
2012-9-13,75,62,52,62,56,51,98,82,49,30.34,30.22,7,1,9,0.00
2012-9-14,75,66,59,68,63,58,98,89,74,30.25,30.12,2,0,5,0.00
2012-9-15,76,66,59,66,62,58,98,86,69,30.16,30.08,11,1,14,0.00
2012-9-16,63,60,58,61,58,57,97,93,89,30.15,30.06,6,0,9,0.98
2012-9-17,73,66,59,70,65,57,98,95,88,30.09,29.90,4,0,8,0.01
2012-9-18,73,70,66,72,69,65,98,97,94,29.89,29.67,13,3,22,2.75
2012-9-19,68,63,56,66,59,55,98,88,68,30.11,29.79,8,1,12,0.00
2012-9-20,72,60,52,62,56,51,98,89,67,30.15,30.02,3,0,7,0.00
2012-9-21,76,65,54,66,61,53,98,88,66,30.07,29.96,5,0,9,0.01
2012-9-22,80,68,60,69,64,60,98,87,66,29.96,29.84,9,2,19,0.00
2012-9-23,70,62,51,65,51,41,93,71,38,30.11,29.94,5,0,11,0.00
2012-9-24,67,55,46,52,48,43,92,77,50,30.22,30.11,8,1,11,0.00
2012-9-25,72,58,46,62,54,45,98,85,62,30.22,30.11,7,1,12,0.00
2012-9-26,77,65,55,67,60,54,97,86,68,30.19,30.11,6,1,11,0.00
2012-9-27,79,66,56,66,61,55,98,84,58,30.16,30.05,3,0,9,0.00
2012-9-28,79,66,57,69,62,56,98,88,66,30.07,29.95,6,0,7,0.04
2012-9-29,65,62,59,64,61,58,98,97,96,29.96,29.86,5,1,8,0.59
2012-9-30,67,61,56,62,58,56,98,92,75,29.90,29.82,2,0,6,0.02
2012-10-1,62,60,58,61,59,57,98,96,94,29.91,29.84,9,1,12,0.05
2012-10-2,80,71,62,76,69,61,99,95,82,29.91,29.79,5,1,11,0.18
2012-10-3,79,74,70,73,71,68,98,91,75,30.12,29.91,6,1,11,0.01
2012-10-4,74,69,62,67,65,60,95,87,73,30.18,30.11,5,1,10,0.01
2012-10-5,76,64,55,64,59,53,98,85,54,30.15,29.99,1,0,6,0.00
2012-10-6,78,65,57,66,60,55,98,83,62,29.98,29.85,6,1,12,0.07
2012-10-7,61,52,48,56,50,47,97,94,83,30.12,29.95,8,2,15,0.60
2012-10-8,50,48,46,49,46,44,97,95,87,30.23,30.12,5,2,14,0.30
2012-10-9,56,50,46,54,49,45,98,96,93,30.16,30.06,8,1,12,0.03
2012-10-10,66,57,51,57,53,50,97,87,66,30.09,29.95,3,0,12,0.00
2012-10-11,62,52,45,49,45,41,92,76,53,30.29,30.10,4,1,9,0.00
2012-10-12,67,53,43,53,47,42,98,82,52,30.33,30.15,5,1,18,0.00
2012-10-13,61,52,41,49,44,38,91,77,57,30.46,30.32,7,1,11,0.00
2012-10-14,71,56,43,62,53,42,98,88,70,30.32,29.99,11,1,14,0.00
2012-10-15,67,62,55,66,60,48,97,92,76,29.99,29.68,7,1,11,0.27
2012-10-16,64,53,44,50,46,42,94,78,54,29.93,29.83,7,1,10,0.00
2012-10-17,67,54,45,54,48,43,98,82,48,29.99,29.89,8,1,12,0.00
2012-10-18,70,58,46,66,56,44,98,92,77,29.91,29.74,8,1,11,0.03
2012-10-19,71,62,49,63,55,40,98,81,46,29.74,29.64,11,2,18,0.19
2012-10-20,66,53,43,49,45,41,95,76,47,29.94,29.72,7,1,11,0.00
2012-10-21,62,51,42,47,43,39,92,77,50,30.13,29.95,5,0,10,0.00
2012-10-22,69,52,41,51,46,40,97,80,41,30.22,30.12,2,0,7,0.00
2012-10-23,76,58,46,57,51,44,98,80,47,30.16,30.06,5,1,12,0.00
2012-10-24,77,62,50,59,54,48,96,78,50,30.16,30.05,4,1,9,0.00
2012-10-25,76,61,49,61,55,48,98,82,54,30.14,30.07,6,0,10,0.00
2012-10-26,68,60,54,63,58,53,97,92,83,30.11,29.92,6,2,13,0.00
2012-10-27,66,62,60,61,58,54,95,85,73,29.92,29.69,15,3,22,0.00
2012-10-28,63,58,52,54,50,47,88,74,61,29.69,29.55,11,4,22,0.00
2012-10-29,52,44,40,49,42,38,95,90,76,29.58,29.27,14,4,24,0.55
2012-10-30,46,43,40,38,36,34,93,76,64,29.57,29.23,13,5,31,0.02
2012-10-31,53,45,38,39,36,34,87,72,56,29.75,29.56,12,2,19,0.00
2012-11-1,55,47,37,38,37,34,88,69,51,29.83,29.72,6,2,15,0.00
2012-11-2,58,45,37,40,36,32,90,72,50,29.95,29.81,7,1,12,0.00
2012-11-3,56,45,36,39,34,32,89,68,40,30.08,29.95,8,1,15,0.00
2012-11-4,53,47,42,42,39,37,88,75,61,30.06,29.96,6,1,12,0.01
2012-11-5,52,42,35,41,34,31,94,76,46,30.10,29.99,6,1,10,0.00
2012-11-6,43,38,32,34,32,30,92,80,64,30.14,29.92,8,2,13,0.00
2012-11-7,52,42,36,35,33,31,89,71,51,29.93,29.82,9,2,14,0.00
2012-11-8,59,46,34,35,27,17,93,55,20,30.11,29.92,8,2,16,0.00
2012-11-9,61,45,34,37,32,25,84,62,34,30.24,30.10,5,1,9,0.00
2012-11-10,71,50,34,43,36,32,94,66,28,30.36,30.23,7,1,11,0.00
2012-11-11,71,53,38,51,44,35,95,73,44,30.45,30.35,7,1,16,0.00
2012-11-12,69,58,48,61,55,46,98,89,72,30.40,30.14,7,2,15,0.00
2012-11-13,62,48,37,60,45,35,96,91,81,30.40,30.12,11,3,18,0.15
2012-11-14,47,39,30,36,32,28,95,79,59,30.49,30.36,15,3,16,0.00
2012-11-15,45,40,34,42,36,30,96,86,71,30.37,30.24,10,2,11,0.18
2012-11-16,53,43,35,42,37,34,97,83,55,30.38,30.25,8,1,14,0.00
2012-11-17,54,43,32,36,31,28,92,68,39,30.49,30.38,12,3,17,0.00
2012-11-18,55,48,42,45,42,36,87,78,68,30.46,30.35,12,3,17,0.00
2012-11-19,56,49,42,47,43,39,91,79,69,30.35,30.16,13,3,18,0.00
2012-11-20,57,46,38,47,42,36,94,84,66,30.17,30.04,4,1,9,0.00
2012-11-21,58,44,35,44,37,33,97,79,47,30.17,30.08,10,2,13,0.00
2012-11-22,58,42,33,36,31,27,92,68,33,30.24,30.15,7,1,13,0.00
2012-11-23,63,46,29,41,34,26,94,67,40,30.15,29.86,10,2,13,0.00
2012-11-24,49,41,29,34,24,18,67,53,38,30.10,29.88,10,3,18,0.00
2012-11-25,49,33,21,26,22,18,90,66,36,30.16,30.01,7,1,13,0.00
2012-11-26,62,44,30,32,28,25,87,57,26,30.19,30.06,7,1,11,0.00
2012-11-27,52,44,37,46,40,30,93,83,62,30.23,30.09,5,1,12,0.16
2012-11-28,49,41,34,38,34,29,96,78,51,30.34,30.22,6,1,12,0.00
2012-11-29,51,36,24,32,27,22,94,73,45,30.47,30.35,9,1,12,0.00
2012-11-30,59,42,30,38,33,27,94,74,42,30.39,30.27,11,2,12,0.00
2012-12-1,61,44,32,45,37,30,96,77,50,30.39,30.30,4,0,6,0.00
2012-12-2,66,48,36,51,43,34,96,83,58,30.37,30.21,8,2,16,0.00
2012-12-3,72,60,52,55,53,51,96,79,53,30.26,30.17,7,2,13,0.00
2012-12-4,71,57,44,56,51,42,96,80,53,30.27,30.13,8,2,15,0.00
2012-12-5,60,54,38,57,50,35,94,87,74,30.18,30.07,9,2,17,0.11
2012-12-6,48,43,36,38,34,32,90,73,58,30.32,30.17,10,2,13,0.00
2012-12-7,49,46,43,48,43,35,99,88,72,30.19,29.98,5,1,7,0.27
2012-12-8,63,53,48,57,50,47,98,92,78,30.02,29.93,6,1,11,0.00
2012-12-9,69,58,48,61,55,47,98,91,74,30.10,29.94,7,2,13,0.02
2012-12-10,68,62,58,61,59,57,98,91,77,29.93,29.63,10,3,20,0.11
2012-12-11,60,52,44,58,43,33,94,71,55,30.12,29.66,8,3,14,0.00
2012-12-12,45,42,40,36,33,31,80,70,60,30.31,30.13,16,3,17,0.03
2012-12-13,49,40,30,37,32,27,90,74,57,30.39,30.25,12,3,16,0.04
2012-12-14,55,36,25,34,28,23,94,74,35,30.36,30.23,7,1,9,0.00
2012-12-15,55,42,31,40,33,27,93,71,39,30.26,30.07,5,1,9,0.01
2012-12-16,57,52,46,54,49,42,97,91,81,30.06,29.87,7,2,14,0.13
2012-12-17,58,55,51,56,54,51,98,95,91,29.86,29.60,11,2,20,0.25
2012-12-18,58,51,38,55,44,33,97,78,54,29.87,29.60,10,3,20,0.01
2012-12-19,62,46,34,40,35,30,88,69,41,30.11,29.85,10,2,19,0.00
2012-12-20,59,48,38,59,43,35,98,84,70,30.14,29.44,18,4,32,0.57
2012-12-21,52,40,36,48,29,23,88,65,52,29.79,29.46,16,6,32,0.00
2012-12-22,47,39,34,25,22,18,66,53,37,30.08,29.79,12,4,25,0.00
2012-12-23,56,40,25,33,23,20,88,56,25,30.12,29.98,12,2,16,0.00
2012-12-24,49,45,41,46,39,32,95,81,63,30.01,29.86,9,2,13,0.06
2012-12-25,56,48,43,46,44,42,96,85,61,30.08,29.90,6,2,14,0.01
2012-12-26,46,40,35,43,39,34,100,94,80,30.04,29.44,17,6,24,1.40
2012-12-27,45,38,31,35,31,26,97,79,61,30.07,29.60,10,4,17,0.00
2012-12-28,42,34,26,31,28,23,93,78,60,30.18,30.00,4,1,8,0.00
2012-12-29,48,40,34,43,35,28,97,84,65,29.98,29.64,11,3,18,0.27
2012-12-30,43,36,27,27,23,21,81,61,42,30.38,29.95,10,3,19,0.00
2012-12-31,51,38,24,33,26,21,91,67,38,30.34,30.08,16,2,19,0.00
2013-1-1,48,45,43,47,40,30,96,83,58,30.09,29.88,6,2,17,0.26